EA4TN Weather Reports


time (UTC)temp
C
wind
direction
speed
KPH
gust
KPH
rain 1hr
cm
rain 24hr
cm
rain mn
cm
humidity
%
barometer
mb
20260502152017 22 252 8.0 22.5 0.00 0.08 0.08 55 1014.9
20260502151017 21 257 9.7 17.7 0.00 0.08 0.08 57 1014.9
20260502123037 20 240 4.8 14.5 0.00 0.08 0.08 64 1016.7
20260502122017 20 229 6.4 12.9 0.00 0.08 0.08 65 1017.0
20260502121017 20 154 4.8 16.1 0.00 0.08 0.08 65 1017.0
20260502115017 18 238 8.0 14.5 0.00 0.08 0.08 69 1017.1
20260502114017 18 130 4.8 12.9 0.00 0.08 0.08 71 1017.4
20260502113017 18 243 3.2 12.9 0.00 0.08 0.08 72 1017.6
20260502112037 18 249 6.4 16.1 0.00 0.08 0.08 72 1017.8
20260502111017 18 218 4.8 11.3 0.00 0.08 0.08 74 1017.8
20260502110017 17 233 4.8 12.9 0.00 0.08 0.08 75 1017.9
20260502105017 17 192 3.2 14.5 0.00 0.08 0.08 76 1018.1
20260502104017 17 238 6.4 11.3 0.00 0.08 0.08 76 1018.3
20260502103017 17 88 3.2 6.4 0.00 0.08 0.08 79 1018.4
20260502102017 17 140 3.2 9.7 0.00 0.08 0.08 80 1018.4
20260502101037 17 263 1.6 8.0 0.00 0.08 0.08 82 1018.5
20260502091017 16 117 3.2 8.0 0.00 0.08 0.08 87 1018.6
20260502071017 15 134 3.2 9.7 0.03 0.03 0.03 85 1018.8
20260502070017 15 130 3.2 9.7 0.03 0.03 0.03 85 1019.0
20260502065037 15 120 4.8 9.7 0.03 0.03 0.03 84 1019.2
20260502064017 15 225 1.6 6.4 0.00 0.00 0.00 84 1019.2
20260502063017 15 237 3.2 6.4 0.00 0.00 0.00 83 1019.4
20260502062035 15 265 3.2 12.9 0.00 0.00 0.00 82 1019.6
20260502061037 15 245 6.4 17.7 0.00 0.00 0.00 81 1019.2
20260502060015 15 323 0.0 8.0 0.00 0.00 0.00 81 1018.8
20260502055017 15 92 1.6 9.7 0.00 0.00 0.00 81 1018.7
20260502054017 15 124 6.4 9.7 0.00 0.00 0.00 81 1018.5
20260502053017 15 117 1.6 14.5 0.00 0.00 0.00 81 1018.9
20260502052015 15 102 3.2 12.9 0.00 0.00 0.00 80 1019.1
20260502051017 15 125 6.4 14.5 0.00 0.00 0.00 80 1019.1
20260502050017 15 117 3.2 11.3 0.00 0.00 0.00 80 1019.3
20260502045017 15 92 1.6 9.7 0.00 0.00 0.00 80 1019.3
20260502044017 15 124 4.8 9.7 0.00 0.00 0.00 80 1019.1
20260502043017 15 116 3.2 8.0 0.00 0.00 0.00 80 1019.1
20260502042017 15 185 1.6 8.0 0.00 0.00 0.00 80 1019.1
20260502041015 15 125 6.4 11.3 0.00 0.00 0.00 80 1019.0
20260502040017 15 119 4.8 9.7 0.00 0.00 0.00 80 1019.2
20260502035035 15 253 3.2 6.4 0.00 0.00 0.00 80 1019.3
20260502034035 15 105 3.2 6.4 0.00 0.00 0.00 80 1019.2
20260502033015 15 135 1.6 8.0 0.00 0.00 0.00 79 1019.2
20260502032015 15 125 1.6 12.9 0.00 0.00 0.00 79 1019.1
20260502031015 15 141 3.2 9.7 0.00 0.00 0.00 79 1019.1
20260502030015 15 115 1.6 9.7 0.00 0.00 0.00 79 1019.2
20260502025015 15 110 3.2 12.9 0.00 0.00 0.00 79 1019.3
20260502024035 15 258 3.2 9.7 0.00 0.00 0.00 80 1019.4
20260502023015 15 272 1.6 6.4 0.00 0.00 0.00 80 1019.2
20260502022015 15 100 1.6 11.3 0.00 0.00 0.00 79 1019.2
20260502021015 15 124 4.8 11.3 0.00 0.00 0.00 79 1019.2
20260502020015 15 90 1.6 6.4 0.00 0.00 0.00 79 1019.3
20260502015016 15 227 3.2 9.7 0.00 0.00 0.00 79 1019.5
20260502014015 15 140 3.2 9.7 0.00 0.00 0.00 78 1019.4
20260502013035 15 242 3.2 14.5 0.00 0.00 0.00 78 1019.3
20260502012035 16 131 6.4 16.1 0.00 0.00 0.00 77 1019.4
20260502011015 16 137 4.8 17.7 0.00 0.00 0.00 77 1019.7
20260502010035 16 165 3.2 6.4 0.00 0.00 0.00 77 1019.9
20260502005016 16 231 3.2 11.3 0.00 0.00 0.00 77 1020.0
20260502004015 16 227 3.2 12.9 0.00 0.00 0.00 77 1019.9
20260502003015 16 49 1.6 14.5 0.00 0.00 0.00 76 1019.7
20260502002015 16 157 3.2 22.5 0.00 0.00 0.00 76 1019.8
20260502001015 16 122 11.3 19.3 0.00 0.00 0.00 75 1019.8
20260502000015 16 114 8.0 16.1 0.00 0.00 0.00 75 1019.9
20260501235017 17 115 4.8 14.5 0.00 0.00 0.00 74 1019.8
20260501234017 17 269 3.2 8.0 0.00 0.00 0.00 74 1020.1
20260501233016 17 157 4.8 12.9 0.00 0.00 0.00 73 1019.9
20260501232017 17 263 3.2 19.3 0.00 0.00 0.00 73 1020.0
20260501231017 17 122 4.8 16.1 0.00 0.00 0.00 72 1020.2
20260501230017 17 110 6.4 20.9 0.00 0.00 0.00 72 1019.9
20260501225015 17 116 8.0 22.5 0.00 0.00 0.00 72 1020.0
20260501224017 17 226 6.4 16.1 0.00 0.00 0.00 71 1020.1
20260501223017 18 233 6.4 16.1 0.00 0.00 0.00 71 1019.9
20260501222017 18 246 8.0 19.3 0.00 0.00 0.00 70 1019.9
20260501221017 18 116 4.8 14.5 0.00 0.00 0.00 68 1020.0
20260501220037 18 252 4.8 12.9 0.00 0.00 0.00 68 1019.8
20260501215017 18 243 3.2 16.1 0.00 0.00 0.00 67 1019.8
20260501214017 19 247 6.4 17.7 0.00 0.00 0.00 66 1019.8
20260501213117 19 253 4.8 19.3 0.00 0.00 0.00 64 1019.7
20260501212017 20 229 4.8 9.7 0.00 0.00 0.00 64 1019.6
20260501211017 20 206 4.8 17.7 0.00 0.00 0.00 63 1019.5
20260501210017 20 56 3.2 12.9 0.00 0.00 0.00 62 1019.3
20260501205017 20 188 6.4 16.1 0.00 0.00 0.00 61 1019.3
20260501204017 20 131 6.4 22.5 0.00 0.00 0.00 60 1019.1
20260501203017 21 89 6.4 19.3 0.00 0.00 0.00 57 1018.7
20260501202017 21 208 6.4 16.1 0.00 0.00 0.00 55 1018.7
20260501201017 21 243 4.8 24.1 0.00 0.00 0.00 51 1018.4
20260501200017 22 87 3.2 24.1 0.00 0.00 0.00 50 1018.2
20260501195037 22 115 11.3 22.5 0.00 0.00 0.00 42 1018.0
20260501194017 22 100 1.6 8.0 0.00 0.00 0.00 38 1017.6
20260501193035 23 111 3.2 8.0 0.00 0.00 0.00 37 1017.4
20260501192017 23 257 1.6 3.2 0.00 0.00 0.00 36 1017.3
20260501191017 23 247 1.6 4.8 0.00 0.00 0.00 35 1017.2
20260501190017 23 255 1.6 4.8 0.00 0.00 0.00 35 1017.0
20260501185037 23 270 3.2 8.0 0.00 0.00 0.00 34 1017.2
20260501184017 23 256 3.2 6.4 0.00 0.00 0.00 33 1017.1
20260501183017 24 268 3.2 6.4 0.00 0.00 0.00 33 1017.0
20260501182017 24 248 3.2 6.4 0.00 0.00 0.00 32 1017.0
20260501181017 24 249 3.2 12.9 0.00 0.00 0.00 32 1016.9
20260501180017 25 234 4.8 11.3 0.00 0.00 0.00 31 1016.9
20260501175017 25 240 3.2 9.7 0.00 0.00 0.00 30 1016.8
20260501174017 25 239 4.8 11.3 0.00 0.00 0.00 30 1017.0
20260501173017 25 269 4.8 14.5 0.00 0.00 0.00 30 1017.0
20260501172017 26 255 4.8 17.7 0.00 0.00 0.00 29 1017.0
20260501171017 26 258 3.2 12.9 0.00 0.00 0.00 30 1017.1
20260501170017 25 236 1.6 11.3 0.00 0.00 0.00 31 1017.0
20260501165015 25 262 6.4 11.3 0.00 0.00 0.00 30 1017.0
20260501164037 25 269 8.0 14.5 0.00 0.00 0.00 31 1017.0
20260501163017 25 260 4.8 19.3 0.00 0.00 0.00 31 1017.1
20260501162017 25 269 9.7 19.3 0.00 0.00 0.00 31 1017.0
20260501161017 25 269 9.7 20.9 0.00 0.00 0.00 30 1017.2